Location: Sungai Lasa
(2.4500°N, 113.4500°E)
Time: 03:48:25
(UTC+00:00)

Cosmos 1980 Rocket - Pass Details

Date: 03 February 2023
Orbit: 828 x 850 km, 71.0° (Epoch: 26 March)

Event Time Altitude Azimuth Distance (km) Brightness Sun altitude
Exits shadow 21:09:13 10° 218° (SW) 2,426 4.4 -22.5°
Drops below altitude 10° 21:09:21 10° 217° (SW) 2,456 4.4 -22.4°
Sets 21:12:42 0° 196° (SSW) 3,388 5.4 -21.6°
